This demonstration page uses our WeatherBlox Daily Observations layout. Learn more.

Left ArrowRight Arrow

Hourly Observations for January 31, 2016

Temp ( °F °C ) Dew Point ( °F °C ) Humidity (%) Winds ( mph kmh ) Pressure ( in mb ) Visibility ( mi km ) Precip ( " mm )
12:53 am 00:53 Cloudy 37 2.8 31 -0.6 79 79 N 17 28 29.65 1004 10 16 0.00 0.00
1:53 am 01:53 Cloudy with Light Rain 37 2.8 32 0 82 82 N 20 31 29.67 1005 10 16 0.00 0.03
2:53 am 02:53 Partly Cloudy 36 2.2 32 0 86 86 N 16 26 29.66 1005 10 16 0.00 0.03
3:53 am 03:53 Cloudy 34 1.1 31 -0.6 89 89 NNW 10 17 29.67 1005 10 16 0.00 0.00
4:53 am 04:53 Partly Cloudy 33 0.6 31 -0.6 92 92 NNW 13 20 29.68 1005 10 16 0.00 0.00
5:53 am 05:53 Mostly Cloudy 33 0.6 31 -0.6 92 92 WNW 8 13 29.73 1007 10 16 0.00 0.00
6:53 am 06:53 Clear 33 0.6 31 -0.6 92 92 WNW 8 13 29.75 1008 10 16 0.00 0.00
7:53 am 07:53 Sunny 34 1.1 31 -0.6 89 89 WNW 8 13 29.79 1009 10 16 0.00 0.00
8:53 am 08:53 Cloudy 35 1.7 31 -0.6 85 85 WNW 10 17 29.82 1010 10 16 0.00 0.00
9:53 am 09:53 Mostly Cloudy 38 3.3 32 0 79 79 W 9 15 29.84 1010 10 16 0.00 0.00
10:53 am 10:53 Sunny 41 5 30 -1.1 65 65 NW 14 22 29.85 1011 10 16 0.00 0.00
11:53 am 11:53 Sunny 45 7.2 31 -0.6 58 58 NW 15 24 29.82 1010 10 16 0.00 0.00
12:53 pm 12:53 Sunny 49 9.4 27 -2.8 43 43 NW 16 26 29.82 1010 10 16 0.00 0.00
1:53 pm 13:53 Sunny 49 9.4 28 -2.2 44 44 NW 17 28 29.83 1010 10 16 0.00 0.00
2:53 pm 14:53 Sunny 49 9.4 21 -6.1 33 33 WNW 17 28 29.83 1010 10 16 0.00 0.00
3:53 pm 15:53 Sunny 49 9.4 24 -4.4 38 38 NW 12 19 29.85 1011 10 16 0.00 0.00
4:53 pm 16:53 Sunny 47 8.3 27 -2.8 46 46 NW 8 13 29.88 1012 10 16 0.00 0.00
5:53 pm 17:53 Clear 36 2.2 24 -4.4 62 62 WNW 6 9 29.91 1013 10 16 0.00 0.00
6:53 pm 18:53 Clear 33 0.6 23 -5 66 66 NNW 3 6 29.94 1014 10 16 0.00 0.00
7:53 pm 19:53 Clear 34 1.1 22 -5.6 61 61 Calm 29.97 1015 10 16 0.00 0.00
8:53 pm 20:53 Clear 34 1.1 22 -5.6 61 61 W 3 6 29.98 1015 10 16 0.00 0.00
9:53 pm 21:53 Clear 32 0 23 -5 69 69 WNW 5 7 29.99 1016 10 16 0.00 0.00
10:53 pm 22:53 Clear 34 1.1 22 -5.6 61 61 W 5 7 30.01 1016 10 16 0.00 0.00
11:53 pm 23:53 Clear 32 0 22 -5.6 66 66 Calm 29.99 1016 10 16 0.00 0.00

Powered by AerisWeather